TimeHST,TemperatureF,Dew PointF,Humidity,Sea Level PressureIn,VisibilityMPH,Wind Direction,Wind SpeedMPH,Gust SpeedMPH,PrecipitationIn,Events,Conditions,WindDirDegrees,DateUTC
12:53 AM,77.0,64.9,66,30.01,10.0,East,4.6,-,N/A,,Scattered Clouds,100,2013-06-21 10:53:00
1:53 AM,75.9,59.0,56,30.00,10.0,ENE,10.4,-,N/A,,Clear,60,2013-06-21 11:53:00
2:53 AM,75.9,59.0,56,29.99,10.0,NE,12.7,-,N/A,,Clear,40,2013-06-21 12:53:00
3:53 AM,75.9,60.1,58,29.99,10.0,NE,6.9,-,N/A,,Clear,40,2013-06-21 13:53:00
4:53 AM,75.9,60.1,58,29.99,10.0,NNW,5.8,-,N/A,,Clear,330,2013-06-21 14:53:00
5:53 AM,73.0,61.0,66,29.99,10.0,NE,6.9,-,N/A,,Clear,50,2013-06-21 15:53:00
6:53 AM,78.1,61.0,56,30.01,10.0,Calm,Calm,-,N/A,,Clear,0,2013-06-21 16:53:00
7:53 AM,80.1,63.0,56,30.01,10.0,SSE,10.4,-,N/A,,Clear,150,2013-06-21 17:53:00
8:53 AM,82.0,64.0,54,30.01,10.0,SSE,15.0,-,N/A,,Clear,160,2013-06-21 18:53:00
9:53 AM,82.9,64.0,53,30.02,10.0,South,11.5,-,N/A,,Clear,180,2013-06-21 19:53:00
10:53 AM,82.0,66.0,58,30.01,10.0,SSW,11.5,-,N/A,,Mostly Cloudy,200,2013-06-21 20:53:00
11:53 AM,82.0,68.0,62,30.00,10.0,SW,10.4,-,N/A,,Overcast,220,2013-06-21 21:53:00
12:53 PM,82.0,66.9,60,29.99,10.0,WSW,4.6,-,N/A,,Overcast,240,2013-06-21 22:53:00
1:53 PM,82.9,66.9,58,29.98,10.0,WSW,6.9,-,N/A,,Overcast,250,2013-06-21 23:53:00
2:53 PM,81.0,66.9,62,29.97,10.0,Variable,4.6,-,N/A,,Overcast,0,2013-06-22 00:53:00
3:53 PM,82.0,66.0,58,29.96,10.0,Variable,4.6,-,N/A,,Overcast,0,2013-06-22 01:53:00
4:53 PM,82.0,64.9,56,29.94,10.0,Variable,4.6,-,N/A,,Overcast,0,2013-06-22 02:53:00
5:53 PM,81.0,64.9,58,29.96,10.0,SE,5.8,-,N/A,,Overcast,130,2013-06-22 03:53:00
6:53 PM,81.0,64.9,58,29.97,10.0,SE,6.9,-,0.00,,Overcast,130,2013-06-22 04:53:00
7:53 PM,79.0,64.9,62,29.99,10.0,East,12.7,-,0.00,,Overcast,90,2013-06-22 05:53:00
8:53 PM,79.0,64.9,62,30.00,10.0,South,3.5,-,N/A,,Mostly Cloudy,180,2013-06-22 06:53:00
9:53 PM,79.0,64.0,60,30.01,10.0,SSE,6.9,-,N/A,,Mostly Cloudy,150,2013-06-22 07:53:00
10:53 PM,78.1,64.0,62,30.02,10.0,East,4.6,-,N/A,,Partly Cloudy,90,2013-06-22 08:53:00
11:44 PM,77.0,64.4,65,30.00,10.0,East,4.6,-,N/A,,Mostly Cloudy,80,2013-06-22 09:44:00
11:53 PM,77.0,64.9,66,30.01,10.0,ESE,5.8,-,N/A,,Overcast,110,2013-06-22 09:53:00